[[{"header":{"parameterUnit":"m.s-1","parameterCategory":1,"la1":30.2991,"la2":30.254,"lo1":-89.0895,"lo2":-89.0444,"dy":0.0017,"dx":0.0017,"nx":28,"ny":28,"refTime":"2024-02-06T03:00:00:Z","depth":0,"parameterNumber":2,"parameterNumberName":"U-component_of_WINDS"},"data":[0,0,0,0,0,0,0,0,0,0,0,0,0,0,0,0,0,0,0,0,0,0,0,0,0,0,0,0,0,0,0,0,0,0,0,0,0,0,0,0,0,0,0,0,0,0,0,0,0,0,0,0,0,0,0,0,0,0,-3.6702,-3.6704,0,-3.6841,-3.6843,-3.6844,-3.6802,-3.6799,-3.6796,-3.6793,-3.694,-3.6947,-3.6953,0,0,0,0,0,0,0,0,0,0,0,0,0,-3.6406,-3.6412,-3.6702,-3.6704,-3.6705,-3.6841,-3.6843,-3.6845,-3.6803,-3.6799,-3.6795,-3.6792,-3.6938,-3.6946,-3.6954,0,0,0,0,0,0,0,0,0,0,0,0,0,-3.6539,-3.6413,-3.6702,-3.6701,-3.6702,-3.684,-3.6843,-3.6845,-3.6803,-3.6799,-3.6794,-3.679,-3.6936,-3.6945,-3.6955,-3.7104,0,0,-3.6986,-3.699,0,0,0,0,0,0,0,0,-3.6531,-3.655,-3.6699,-3.6701,-3.6703,-3.68,-3.6792,-3.6932,-3.6804,-3.6765,-3.6793,-3.6788,-3.6897,-3.691,-3.6946,-3.7111,-3.7118,-3.6986,-3.6993,-3.6997,-3.7,0,0,0,0,0,0,0,-3.6522,-3.6544,-3.6757,-3.6701,-3.6704,-3.6695,-3.6709,-3.6819,-3.6854,-3.6768,-3.6765,-3.6782,-3.6898,-3.6937,-3.6949,-3.712,-3.6986,-3.6995,-3.7001,-3.7005,-3.7417,-3.7422,0,0,0,0,0,0,-3.6511,-3.6536,-3.6753,-3.6761,-3.6604,-3.6704,-3.672,-3.6773,-3.6853,-3.6861,-3.6786,-3.678,-3.6922,-3.6938,-3.6954,-3.7136,-3.6997,-3.7006,-3.7012,-3.7412,-3.7418,-3.7424,0,0,0,0,0,0,-3.6505,-3.6531,-3.6747,-3.6648,-3.6675,-3.6714,-3.6774,-3.6778,-3.6817,-3.6866,-3.6873,-3.6819,-3.6919,-3.694,-3.7068,-3.714,-3.7011,-3.702,-3.7407,-3.7414,-3.7421,-3.7499,0,0,0,0,0,0,-3.6497,-3.6529,-3.6584,-3.665,-3.668,-3.6856,-3.6778,-3.6784,-3.6834,-3.6827,-3.6899,-3.6907,-3.6917,-3.7053,-3.7078,-3.7152,-3.7027,-3.74,-3.741,-3.7419,-3.749,-3.7508,-3.7524,0,0,0,0,0,-3.6486,-3.6601,-3.6587,-3.6614,-3.675,-3.6861,-3.6878,-3.6887,-3.684,-3.6897,-3.6929,-3.6904,-3.7128,-3.7066,-3.7094,-3.7172,-3.7396,-3.7407,-3.7418,-3.7483,-3.7505,-3.7523,0,0,0,0,0,0,-3.6544,-3.661,-3.6595,-3.6734,-3.6792,-3.6853,-3.6925,-3.691,-3.6983,-3.6974,-3.6983,-3.7,-3.7131,-3.7164,-3.7094,-3.7322,-3.7255,-3.7273,-3.7295,-3.7317,-3.7333,-3.7322,-3.7036,0,0,0,0,0,-3.6573,-3.6656,-3.6709,-3.6827,-3.6856,-3.6886,-3.6935,-3.6936,-3.6997,-3.7022,-3.7063,-3.7125,-3.7209,-3.7265,-3.7345,-3.7495,-3.7511,-3.7563,-3.7579,-3.7593,-3.7608,-3.7692,-3.7716,-3.7461,-3.7461,-3.746,0,0,-3.6634,-3.668,-3.6731,-3.684,-3.6885,-3.6972,-3.6907,-3.7002,-3.7067,-3.7037,-3.7159,-3.7192,-3.7262,-3.7402,-3.7465,-3.7434,-3.7682,-3.7607,-3.7617,-3.7625,-3.7706,-3.773,-3.7752,-3.7468,-3.7467,-3.7466,0,0,-3.6789,-3.6831,-3.6935,-3.6982,-3.7051,-3.707,-3.7095,-3.716,-3.718,-3.7303,-3.7283,-3.7362,-3.7506,-3.7557,-3.7602,-3.778,-3.7761,-3.7806,-3.7894,-3.7976,-3.7996,-3.8014,-3.8079,-3.8102,-3.7821,-3.7821,-3.7821,0,-3.6856,-3.6985,-3.6991,-3.7088,-3.7137,-3.7113,-3.7219,-3.7265,-3.7357,-3.7393,-3.7355,-3.7538,-3.7583,-3.7735,-3.7779,-3.7816,-3.7846,-3.7798,-3.7992,-3.801,-3.8027,-3.8089,-3.8114,-3.7826,-3.7826,-3.7825,-3.7825,0,-3.7065,-3.7155,-3.7231,-3.732,-3.7378,-3.7479,-3.7502,-3.7561,-3.7558,-3.7582,-3.771,-3.7763,-3.7855,-3.7891,-3.7889,-3.8045,-3.8023,-3.7989,-3.7922,-3.8056,-3.8115,-3.8139,-3.7833,-3.7832,-3.783,-3.7829,0,0,-3.7259,-3.7351,-3.7379,-3.742,-3.7496,-3.7566,-3.7668,-3.7757,-3.7807,-3.7873,-3.7959,-3.8084,-3.8053,-3.8105,-3.8109,-3.8181,-3.8321,-3.8139,-3.8141,-3.8172,-3.8497,-3.8522,-3.855,-3.8308,-3.8313,-3.8316,-3.8492,0,-3.7422,-3.7598,-3.7608,-3.7769,-3.7853,-3.7833,-3.7922,-3.7979,-3.8005,-3.8083,-3.8112,-3.82,-3.8153,-3.8184,-3.8254,-3.8288,-3.8386,-3.8276,-3.8391,-3.8395,-3.8375,-3.858,-3.8606,-3.8769,-3.8514,-3.8518,-3.8521,0,-3.7634,-3.7705,-3.7875,-3.794,-3.7976,-3.8056,-3.8139,-3.8212,-3.8278,-3.8292,-3.835,-3.8345,-3.8452,-3.8382,-3.853,-3.8455,-3.8503,-3.8528,-3.8535,-3.8546,-3.8466,-3.8598,-3.8821,-3.8845,-3.8557,-3.8554,-3.8552,0,-3.776,-3.7899,-3.8019,-3.8054,-3.8133,-3.819,-3.8226,-3.8287,-3.8341,-3.8414,-3.845,-3.8535,-3.8582,-3.865,-3.8669,-3.8616,-3.8818,-3.8749,-3.8835,-3.8835,-3.8878,-3.8875,-3.9113,-3.8908,-3.8908,-3.8908,-3.8907,0,-3.7941,-3.8046,-3.8077,-3.815,-3.8268,-3.8279,-3.8396,-3.8429,-3.8484,-3.8566,-3.8554,-3.8631,-3.8651,-3.8733,-3.8749,-3.8871,-3.8893,-3.8909,-3.8912,-3.891,-3.8908,-3.8942,-3.8931,-3.8914,-3.8913,-3.8911,-3.891,0,-3.8101,-3.8126,-3.8255,-3.832,-3.8339,-3.8423,-3.8479,-3.8552,-3.8577,-3.868,-3.8705,-3.8745,-3.8841,-3.8867,-3.8982,-3.8993,-3.9137,-3.913,-3.9115,-3.9115,-3.9199,-3.9191,-3.9467,-3.9505,-3.9275,-3.9277,-3.9279,0,-3.8215,-3.8295,-3.8368,-3.8421,-3.846,-3.8545,-3.86,-3.8615,-3.8673,-3.8755,-3.8819,-3.8913,-3.8989,-3.9144,-3.9184,-3.9273,-3.9268,-3.9359,-3.9282,-3.9278,-3.9271,-3.9266,-3.9275,-3.9374,-3.9376,-3.9378,-3.938,0,-3.8414,-3.8423,-3.8501,-3.8585,-3.865,-3.8717,-3.8781,-3.8826,-3.8851,-3.8917,-3.9014,-3.9073,-3.9191,-3.9286,-3.9376,-3.9415,-3.9403,-3.9404,-3.9428,-3.9427,-3.9416,-3.9424,-3.9155,-3.9397,-3.9395,-3.9394,-3.9393,-3.9392,-3.8555,-3.8626,-3.8689,-3.8778,-3.8828,-3.8889,-3.896,-3.8994,-3.9075,-3.9171,-3.9176,-3.9283,-3.935,-3.9469,-3.9514,-3.9599,-3.9572,-3.9608,-3.9617,-3.9625,-3.9633,-3.9402,-3.9616,-3.9615,-3.9615,-3.9614,-3.9614,0,-3.8754,-3.8794,-3.8876,-3.8966,-3.9036,-3.9017,-3.9088,-3.9149,-3.9242,-3.9305,-3.938,-3.9494,-3.9586,-3.9635,-3.9727,-3.9787,-3.9783,-3.981,-3.9806,-3.9816,-3.9651,-3.9621,-3.9812,-3.9812,-3.9812,-3.9812,-3.9811,-3.9811,-3.8866,-3.8986,-3.9003,-3.9148,-3.9188,-3.9291,-3.9334,-3.9391,-3.9441,-3.9568,-3.9644,-3.9675,-3.9733,-3.983,-3.9915,-3.9928,-3.9963,-3.9994,-4.0003,-3.9848,-3.9828,-3.9808,-3.978,-4.0001,-4.0001,-4.0161,-4.0162,-4.0163]},{"header":{"parameterUnit":"m.s-1","parameterCategory":1,"la1":30.2991,"la2":30.254,"lo1":-89.0895,"lo2":-89.0444,"dy":0.0017,"dx":0.0017,"nx":28,"ny":28,"refTime":"2024-02-06T03:00:00:Z","depth":0,"parameterNumber":3,"parameterNumberName":"V-component_of_WINDS"},"data":[0,0,0,0,0,0,0,0,0,0,0,0,0,0,0,0,0,0,0,0,0,0,0,0,0,0,0,0,0,0,0,0,0,0,0,0,0,0,0,0,0,0,0,0,0,0,0,0,0,0,0,0,0,0,0,0,0,0,0.3052,0.3052,0,0.3096,0.3096,0.3097,0.3118,0.3118,0.3118,0.3118,0.3162,0.3163,0.3164,0,0,0,0,0,0,0,0,0,0,0,0,0,0.2985,0.2986,0.3052,0.3052,0.3053,0.3096,0.3096,0.3097,0.3118,0.3118,0.3118,0.3118,0.3161,0.3163,0.3164,0,0,0,0,0,0,0,0,0,0,0,0,0,0.302,0.2986,0.3051,0.3068,0.307,0.3096,0.3096,0.3097,0.3118,0.3118,0.3118,0.3118,0.3161,0.3162,0.3164,0.3176,0,0,0.317,0.317,0,0,0,0,0,0,0,0,0.3018,0.3022,0.3065,0.3067,0.3069,0.3101,0.3089,0.3124,0.3118,0.31,0.3118,0.3117,0.3141,0.3145,0.3153,0.3178,0.318,0.317,0.3171,0.3172,0.3172,0,0,0,0,0,0,0,0.3015,0.3021,0.3069,0.3066,0.3068,0.3074,0.3078,0.3096,0.312,0.3101,0.3103,0.3108,0.3143,0.3151,0.3154,0.3181,0.317,0.3171,0.3172,0.3173,0.3219,0.3219,0,0,0,0,0,0,0.301,0.3018,0.3068,0.307,0.3043,0.3075,0.308,0.3091,0.312,0.3124,0.3108,0.3109,0.3148,0.3152,0.3156,0.3173,0.3172,0.3173,0.3174,0.3219,0.3219,0.3219,0,0,0,0,0,0,0.3009,0.3015,0.3066,0.3045,0.3052,0.3076,0.3088,0.3092,0.3101,0.3125,0.3129,0.3112,0.3148,0.3153,0.3171,0.3175,0.3174,0.3176,0.3219,0.3219,0.3219,0.3206,0,0,0,0,0,0,0.3007,0.3014,0.3019,0.3045,0.3053,0.308,0.3088,0.3093,0.3104,0.3105,0.313,0.3135,0.3149,0.3169,0.3173,0.3177,0.3177,0.3219,0.3219,0.3219,0.3206,0.3206,0.3205,0,0,0,0,0,0.3004,0.3012,0.3019,0.3024,0.3059,0.3081,0.3085,0.3102,0.3104,0.3109,0.3125,0.3134,0.3173,0.317,0.3175,0.318,0.3218,0.3219,0.3219,0.3206,0.3206,0.3205,0,0,0,0,0,0,0.2985,0.3016,0.3023,0.304,0.3058,0.3084,0.3091,0.31,0.3117,0.3118,0.3137,0.3143,0.3159,0.3171,0.3167,0.3194,0.3197,0.3198,0.3185,0.3185,0.3184,0.3181,0.3179,0,0,0,0,0,0.2983,0.2998,0.3024,0.3036,0.3045,0.3066,0.3076,0.3088,0.3106,0.3114,0.3131,0.3148,0.3165,0.3176,0.3192,0.3208,0.3214,0.3214,0.3213,0.3213,0.3214,0.3224,0.3225,0.322,0.322,0.322,0,0,0.2978,0.2997,0.3005,0.3033,0.3048,0.3063,0.3072,0.3088,0.3099,0.3116,0.3134,0.3148,0.3169,0.3186,0.3194,0.3196,0.3216,0.3213,0.3212,0.3214,0.3225,0.3225,0.3225,0.3221,0.322,0.322,0,0,0.2977,0.2993,0.3006,0.3021,0.3044,0.3058,0.3061,0.3087,0.3096,0.3115,0.3129,0.3143,0.317,0.3185,0.3196,0.3203,0.3212,0.3208,0.3206,0.3216,0.3216,0.3216,0.322,0.3221,0.3209,0.3209,0.3209,0,0.2969,0.2992,0.3011,0.3026,0.3038,0.3055,0.3068,0.3082,0.3109,0.3117,0.3119,0.3155,0.3171,0.3192,0.3194,0.3202,0.3207,0.3205,0.3215,0.3215,0.3216,0.3219,0.322,0.3208,0.3208,0.3209,0.3209,0,0.2981,0.2997,0.3005,0.3031,0.3044,0.3058,0.3079,0.309,0.3101,0.3115,0.3135,0.3154,0.3175,0.3181,0.3191,0.3205,0.3206,0.3211,0.3214,0.3215,0.3219,0.322,0.3208,0.3208,0.3208,0.3208,0,0,0.2968,0.3006,0.3009,0.3022,0.3049,0.3062,0.3077,0.3099,0.3108,0.3127,0.314,0.3164,0.317,0.3183,0.3195,0.3203,0.3209,0.3208,0.3209,0.3208,0.3226,0.3222,0.3224,0.3215,0.3215,0.3216,0.3225,0,0.2972,0.3001,0.3018,0.304,0.3056,0.3073,0.3086,0.3104,0.3118,0.3134,0.3149,0.3167,0.3172,0.318,0.319,0.3206,0.3213,0.3206,0.3228,0.3229,0.3223,0.3225,0.3221,0.3229,0.3226,0.3226,0.3226,0,0.298,0.2999,0.3023,0.305,0.3057,0.3069,0.3091,0.3105,0.3127,0.3137,0.3152,0.3164,0.3181,0.3183,0.3208,0.3202,0.3213,0.3222,0.3223,0.3226,0.3228,0.3229,0.3231,0.3233,0.3229,0.3229,0.3228,0,0.297,0.3001,0.302,0.303,0.3062,0.307,0.3083,0.3105,0.3117,0.3137,0.3145,0.3165,0.3177,0.3192,0.321,0.321,0.3233,0.3236,0.3242,0.3242,0.3246,0.3246,0.3251,0.3252,0.3252,0.3252,0.3252,0,0.2973,0.2986,0.3016,0.3027,0.3044,0.3064,0.3079,0.3094,0.3114,0.3128,0.3144,0.3157,0.318,0.3196,0.321,0.3229,0.3233,0.3242,0.3246,0.3241,0.324,0.3248,0.3248,0.3252,0.3252,0.3252,0.3252,0,0.2964,0.2984,0.3006,0.3034,0.3042,0.3053,0.3077,0.3089,0.3105,0.3123,0.3129,0.3153,0.3173,0.3192,0.3219,0.3229,0.3247,0.3252,0.324,0.3242,0.3247,0.3247,0.3258,0.3261,0.3259,0.3259,0.3259,0,0.2964,0.2976,0.3006,0.3018,0.3031,0.3049,0.3062,0.3083,0.3096,0.3122,0.3131,0.3152,0.3171,0.3202,0.3222,0.3243,0.3248,0.3251,0.3251,0.3247,0.3249,0.3249,0.325,0.325,0.325,0.325,0.325,0,0.2964,0.2974,0.2992,0.3015,0.303,0.3049,0.3068,0.3076,0.3101,0.3115,0.3136,0.315,0.3179,0.32,0.3223,0.3237,0.3248,0.325,0.3253,0.3248,0.3241,0.3246,0.324,0.325,0.325,0.325,0.325,0.325,0.296,0.2972,0.2995,0.3016,0.3033,0.3051,0.3064,0.3081,0.31,0.3125,0.3136,0.3158,0.318,0.3213,0.3226,0.3244,0.3246,0.325,0.3251,0.3251,0.3251,0.3238,0.3248,0.3248,0.3248,0.3248,0.3248,0,0.2961,0.2977,0.2996,0.3023,0.304,0.3049,0.3071,0.3084,0.3103,0.3124,0.3142,0.3167,0.3188,0.321,0.3233,0.3243,0.3248,0.3248,0.3247,0.3251,0.3247,0.3243,0.3243,0.3243,0.3243,0.3243,0.3243,0.3243,0.2963,0.2983,0.2996,0.3025,0.3042,0.3064,0.3076,0.3093,0.3109,0.3137,0.3155,0.3169,0.3191,0.3215,0.3235,0.3241,0.3249,0.3247,0.3255,0.3251,0.3251,0.3251,0.3247,0.3249,0.3249,0.3257,0.3257,0.3257]}]]